Location: Centerville
(32.8776°N, 96.6203°W)
Time: 05:32:49
(UTC+00:00)

Cosmos 1140 Rocket - Pass Details

Date: 17 June 2021
Orbit: 744 x 767 km, 74.1° (Epoch: 29 July)

Event Time Altitude Azimuth Distance (km) Brightness Sun altitude
Rises 03:07:22 0° 336° (NNW) 3,239 8.0 -16.3°
Reaches altitude 10° 03:09:48 10° 332° (NNW) 2,309 7.1 -16.6°
Maximum altitude 03:14:51 50° 258° (WSW) 971 4.2 -17.4°
Enters shadow 03:18:50 16° 187° (S) 1,916 5.2 -18.0°
